Weather History for Dumas, TX

Change the Weather History Date:

Monday, February 18, 2013

  Actual Average (KBGD) Record (KBGD)
Temperature  
Mean Temperature 39 °F 42 °F  
Max Temperature 46 °F 55 °F 83 °F (2004)
Min Temperature 32 °F 30 °F 6 °F (2006)
Degree Days  
Heating Degree Days 26 23  
Month to date heating degree days 429  
Since 1 July heating degree days 2781  
Cooling Degree Days 0 0  
Month to date cooling degree days 0  
Year to date cooling degree days 0  
Moisture  
Dew Point 15 °F    
Average Humidity 39    
Maximum Humidity 64    
Minimum Humidity 23    
Precipitation  
Precipitation 0.00 in 0.02 in 0.71 in (1957)
Month to date precipitation 0.43  
Year to date precipitation 1.02  
Snow  
Snow 0.00 in - 1.00 in (1975)
Month to date snowfall  
Since 1 July snowfall  
Snow Depth -    
Sea Level Pressure  
Sea Level Pressure 29.91 in    
Wind  
Wind Speed 17 mph (NNW)    
Max Wind Speed 37 mph    
Max Gust Speed 44 mph    
Visibility 10 miles    
Events      
T = Trace of Precipitation, MM = Missing Value Source: NWS Daily Summary

Daily Weather History Graph

Daily Weather History Graph

Search for Another Location

Airport:

Trip Planner

Search our weather history database for the weather conditions in past years. The results will help you decide how hot, cold, wet, or windy it might be!

Date:

Astronomy

Feb. 18, 2013 Rise Set
Actual Time 7:31 AM CST 6:32 PM CST
Civil Twilight 7:05 AM CST 6:59 PM CST
Nautical Twilight 6:35 AM CST 7:28 PM CST
Astronomical Twilight 6:05 AM CST 7:58 PM CST
Moon 12:25 PM CST (2/18) 2:07 AM CST (2/18)
Length of Visible Light 11h 53m
Length of Day
11h 01m
First Quarter, 58% of the Moon is Illuminated
Feb 18
First Quarter
Feb 25
Full
Mar 4
Last Quarter
Mar 11
New
Mar 19
First Quarter

Hourly Weather History & Observations

Time (CST) Temp. Windchill Dew Point Humidity Pressure Visibility Wind Dir Wind Speed Gust Speed Precip Events Conditions
12:15 AM 42.8 °F 35.1 °F 12.2 °F 29% 29.60 in 10.0 mi WSW 16.1 mph - N/A   Clear
12:35 AM 41.0 °F 33.5 °F 12.2 °F 31% 29.60 in 10.0 mi SW 13.8 mph - N/A   Clear
12:55 AM 41.0 °F 32.8 °F 12.2 °F 31% 29.60 in 10.0 mi WSW 16.1 mph - N/A   Clear
1:15 AM 37.4 °F 29.8 °F 14.0 °F 38% 29.60 in 10.0 mi WSW 11.5 mph - N/A   Clear
1:35 AM 37.4 °F 29.8 °F 14.0 °F 38% 29.60 in 10.0 mi WSW 11.5 mph - N/A   Clear
1:55 AM 37.4 °F 29.3 °F 14.0 °F 38% 29.60 in 10.0 mi West 12.7 mph - N/A   Clear
2:35 AM 39.2 °F 31.2 °F 12.2 °F 33% 29.60 in 10.0 mi West 13.8 mph - N/A   Clear
2:55 AM 35.6 °F 25.9 °F 12.2 °F 38% 29.66 in 10.0 mi NW 16.1 mph 24.2 mph N/A   Clear
3:15 AM 35.6 °F 27.5 °F 14.0 °F 41% 29.67 in 10.0 mi NW 11.5 mph - N/A   Clear
3:35 AM 37.4 °F 29.8 °F 14.0 °F 38% 29.67 in 10.0 mi NW 11.5 mph - N/A   Clear
4:15 AM 35.6 °F 26.2 °F 17.6 °F 48% 29.69 in 10.0 mi NNW 15.0 mph - N/A   Scattered Clouds
4:35 AM 35.6 °F 27.5 °F 19.4 °F 52% 29.69 in 10.0 mi NW 11.5 mph - N/A   Mostly Cloudy
4:55 AM 33.8 °F 24.8 °F 19.4 °F 56% 29.71 in 10.0 mi NNW 12.7 mph - N/A   Scattered Clouds
5:15 AM 33.8 °F 23.2 °F 19.4 °F 56% 29.73 in 10.0 mi NW 17.3 mph 20.7 mph N/A   Clear
5:35 AM 33.8 °F 23.2 °F 21.2 °F 60% 29.74 in 10.0 mi NNW 17.3 mph 26.5 mph N/A   Clear
5:55 AM 33.8 °F 23.2 °F 21.2 °F 60% 29.75 in 10.0 mi NNW 17.3 mph 23.0 mph N/A   Clear
6:15 AM 33.8 °F 21.9 °F 21.2 °F 60% 29.76 in 10.0 mi NNW 21.9 mph 29.9 mph N/A   Clear
6:35 AM 32.0 °F 19.8 °F 21.2 °F 64% 29.78 in 10.0 mi NNW 20.7 mph - N/A   Clear
6:55 AM 32.0 °F 19.5 °F 21.2 °F 64% 29.79 in 10.0 mi NNW 21.9 mph - N/A   Clear
7:15 AM 32.0 °F 19.2 °F 19.4 °F 60% 29.81 in 10.0 mi NNW 23.0 mph - N/A   Clear
7:35 AM 32.0 °F 19.5 °F 19.4 °F 60% 29.82 in 10.0 mi NNW 21.9 mph - N/A   Clear
8:15 AM 32.0 °F 18.6 °F 19.4 °F 60% 29.86 in 10.0 mi NNW 25.3 mph 28.8 mph N/A   Clear
8:35 AM 33.8 °F 21.3 °F 19.4 °F 56% 29.87 in 10.0 mi NNW 24.2 mph 32.2 mph N/A   Clear
8:55 AM 33.8 °F 19.9 °F 19.4 °F 56% 29.90 in 10.0 mi NNW 31.1 mph 40.3 mph N/A   Clear
9:15 AM 35.6 °F 22.1 °F 19.4 °F 52% 29.91 in 10.0 mi NNW 32.2 mph 40.3 mph N/A   Clear
9:35 AM 35.6 °F 22.5 °F 17.6 °F 48% 29.93 in 10.0 mi North 29.9 mph 40.3 mph N/A   Clear
9:55 AM 35.6 °F 21.3 °F 17.6 °F 48% 29.94 in 10.0 mi NNW 36.8 mph 43.7 mph N/A   Clear
10:15 AM 35.6 °F 21.5 °F 17.6 °F 48% 29.95 in 10.0 mi NNW 35.7 mph 41.4 mph N/A   Clear
10:35 AM 37.4 °F 24.6 °F 17.6 °F 45% 29.96 in 10.0 mi North 32.2 mph 42.6 mph N/A   Clear
10:55 AM 39.2 °F 27.0 °F 19.4 °F 45% 29.96 in 10.0 mi North 32.2 mph 41.4 mph N/A   Clear
11:15 AM 41.0 °F 29.1 °F 17.6 °F 39% 29.98 in 10.0 mi North 34.5 mph 41.4 mph N/A   Clear
11:35 AM 41.0 °F 29.8 °F 19.4 °F 42% 29.99 in 10.0 mi NNW 29.9 mph 39.1 mph N/A   Clear
11:55 AM 42.8 °F 32.3 °F 19.4 °F 39% 29.99 in 10.0 mi North 29.9 mph 38.0 mph N/A   Clear
12:15 PM 44.6 °F 35.1 °F 19.4 °F 37% 29.99 in 10.0 mi North 27.6 mph 36.8 mph N/A   Clear
12:35 PM 44.6 °F 34.2 °F 17.6 °F 34% 29.99 in 10.0 mi NNW 33.4 mph 43.7 mph N/A   Clear
12:55 PM 44.6 °F 35.5 °F 17.6 °F 34% 30.00 in 10.0 mi North 25.3 mph 39.1 mph N/A   Clear
1:15 PM 44.6 °F 35.1 °F 14.0 °F 29% 30.00 in 10.0 mi NNW 27.6 mph 38.0 mph N/A   Clear
1:35 PM 44.6 °F 35.7 °F 14.0 °F 29% 30.00 in 10.0 mi North 24.2 mph 35.7 mph N/A   Clear
1:55 PM 44.6 °F 34.9 °F 12.2 °F 27% 29.99 in 10.0 mi North 28.8 mph 35.7 mph N/A   Clear
2:15 PM 46.4 °F 37.9 °F 14.0 °F 27% 29.99 in 10.0 mi North 25.3 mph 35.7 mph N/A   Clear
2:35 PM 46.4 °F 38.3 °F 14.0 °F 27% 29.99 in 10.0 mi NNW 23.0 mph 36.8 mph N/A   Clear
2:55 PM 46.4 °F 37.4 °F 14.0 °F 27% 29.98 in 10.0 mi North 28.8 mph 34.5 mph N/A   Clear
3:15 PM 46.4 °F 39.2 °F 14.0 °F 27% 30.00 in 10.0 mi NNW 18.4 mph 31.1 mph N/A   Clear
3:35 PM 46.4 °F 38.5 °F 12.2 °F 25% 30.00 in 10.0 mi NNW 21.9 mph 32.2 mph N/A   Clear
3:55 PM 46.4 °F 39.0 °F 10.4 °F 23% 30.01 in 10.0 mi North 19.6 mph 28.8 mph N/A   Clear
4:15 PM 46.4 °F 38.7 °F 10.4 °F 23% 30.01 in 10.0 mi NNW 20.7 mph 26.5 mph N/A   Clear
4:35 PM 46.4 °F 38.5 °F 10.4 °F 23% 30.01 in 10.0 mi North 21.9 mph 28.8 mph N/A   Clear
4:55 PM 46.4 °F 38.7 °F 10.4 °F 23% 30.02 in 10.0 mi NNW 20.7 mph 26.5 mph N/A   Clear
5:15 PM 46.4 °F 39.8 °F 10.4 °F 23% 30.02 in 10.0 mi NNW 16.1 mph 21.9 mph N/A   Clear
5:35 PM 44.6 °F 38.1 °F 10.4 °F 25% 30.02 in 10.0 mi NNW 13.8 mph - N/A   Clear
5:55 PM 44.6 °F 38.4 °F 10.4 °F 25% 30.03 in 10.0 mi NNW 12.7 mph - N/A   Clear
6:15 PM 42.8 °F 37.5 °F 12.2 °F 29% 30.03 in 10.0 mi North 9.2 mph - N/A   Clear
6:35 PM 39.2 °F 35.9 °F 12.2 °F 33% 30.05 in 10.0 mi NNW 4.6 mph - N/A   Clear
6:55 PM 37.4 °F - 12.2 °F 36% 30.05 in 10.0 mi Calm Calm - N/A   Clear
7:15 PM 37.4 °F 34.9 °F 12.2 °F 36% 30.06 in 10.0 mi NNW 3.5 mph - N/A   Clear
7:35 PM 37.4 °F - 12.2 °F 36% 30.06 in 10.0 mi Calm Calm - N/A   Clear
7:55 PM 33.8 °F - 12.2 °F 41% 30.07 in 10.0 mi Calm Calm - N/A   Clear
8:15 PM 35.6 °F - 10.4 °F 35% 30.07 in 10.0 mi Calm Calm - N/A   Clear
8:35 PM 35.6 °F - 10.4 °F 35% 30.08 in 10.0 mi Calm Calm - N/A   Clear
8:55 PM 33.8 °F - 10.4 °F 38% 30.08 in 10.0 mi Calm Calm - N/A   Clear
9:15 PM 37.4 °F 34.9 °F 10.4 °F 33% 30.08 in 10.0 mi ENE 3.5 mph - N/A   Clear
9:55 PM 35.6 °F - 10.4 °F 35% 30.10 in 10.0 mi Calm Calm - N/A   Clear
10:15 PM 33.8 °F 30.8 °F 10.4 °F 38% 30.11 in 10.0 mi SE 3.5 mph - N/A   Clear
10:35 PM 32.0 °F 28.7 °F 10.4 °F 41% 30.11 in 10.0 mi SE 3.5 mph - N/A   Clear
10:55 PM 33.8 °F - 10.4 °F 38% 30.11 in 10.0 mi Calm Calm - N/A   Clear
11:15 PM 33.8 °F - 10.4 °F 38% 30.11 in 10.0 mi Calm Calm - N/A   Clear
11:35 PM 33.8 °F 30.8 °F 10.4 °F 38% 30.11 in 10.0 mi East 3.5 mph - N/A   Clear
11:55 PM 32.0 °F 27.5 °F 10.4 °F 41% 30.11 in 10.0 mi East 4.6 mph - N/A   Clear